map of BAX home
Great Circle Mapper logo
BAX - Airport
Location
City:  Barnaul, Altay, Russian Federation (Russia)
ICAO / IATA:UNBB / BAX

Details
Type:Airport (Aerodrome, Airfield)
Use:Public/Civil
Latitude:5321'50"N (53.363775)
Longitude:8332'19"E (83.538533)
Datum:WGS 1984
Elevation:838 ft (255 m)
Variation:7.59E (WMM2015 magnetic declination)
0.01 annual change
Runways:1
Longest:9350 × 164 ft (2850 × 50 m), paved

Time
Time Zone:UTC+6 (DST+7)

Weather
METAR:UNBB 251530Z 00000MPS CAVOK M30/M34 Q1048 NOSIG RMK QFE763/1017 24400560
TAF:UNBB 251400Z 2515/2615 VRB02MPS 3000 BR SCT007
TEMPO 2515/2606 1200 FU SCT002 BKN005
FM260600 20006MPS 9999 BKN030
TEMPO 2606/2615 1500 SN BKN005

Related Locations
Nearby:
Farthest:PNT: 11426 mi / 18388 km
Puerto Natales [Teniente Julio Gallardo], MA, CL

Find:

   beyond  
but within

Other Information
Maps:
NOTAMs:
Links:
Sources:

  
flag of Russian Federation (Russia)   

Sectional Chart

Flight Planning
at skyvector.com

Satellite Image

Google Maps Satellite View

 

Copyright © 2004-2015 Karl L. Swartz. All rights reserved.
The Great Circle Mapper name and logo are trademarks of the Great Circle Mapper.
All other trademarks mentioned herein belong to their respective owners.
Please see credits for attibutions and further copyright information.

  Follow gcmap on Facebook Follow gcmap on Twitter

hCard Microformat

Geo Microformat